Location: Unspecified
(38.7273°N, 77.0677°W)
Time: 05:28:35
(UTC-04:00)

CAS-4B - Pass Details

Date: 23 September 2021
Orbit: 529 x 541 km, 43.0° (Epoch: 19 October)

Event Time Altitude Azimuth Distance (km) Brightness Sun altitude
Exits shadow 06:28:00 - 277° (W) 1,952 ? -6.5°
Reaches altitude 10° 06:28:29 10° 279° (W) 1,768 ? -6.4°
Maximum altitude 06:32:23 46° 353° (N) 711 ? -5.7°
Drops below altitude 10° 06:36:18 10° 68° (ENE) 1,772 ? -4.9°
Sets 06:38:36 0° 75° (ENE) 2,663 ? -4.4°
